SCP
0 0 0 0 0 0 0 0 0 0 0 0 0 0 0 0 0 0 0 0 0 0 0 0 0 0 0 0 0 0 0 0 0 0 0 0 0 0 0 0 0 0 0
0 0 0 0 0 0 0 0 0 0 0 0 0 0 0 0 0 0 0 0 0 0 0 0 0 0 0 0 0 0 0 0 0 0 0 0 0 0 0 0 0 0 0
0 0 0 0 0 0 0 0 0 0 0 0 0 0 0 0 0 0 0 0 0 0 0 0 0 0 0 0 0 0 0 0 0 0 0 0 0 0 0 0 0 0 0
0 0 0 0 0 0 0 0 0 0 0 0 0 0 0 0 0 0 0 0 0 0 0 0 0 0 0 0 0 0 0 0 0 0 0 0 0 0 0 0 0 0 0
0 0 0 0 0 -0 -0 -0 0 0 0 0 0 0 0 0 0 0 0 0 0 0 0 0 0 0 0 0 0 0 0 0 0 0 0 0 0 0 0 0 0 0 0
0 0 0 0 -0 -0 -0 -0 -0 0 0 0 0 0 0 0 0 0 0 0 0 0 0 0 0 0 0 0 0 0 0 0 0 0 0 0 0 0 0 0 0 0 0
0 0 0 0 -0 -0 -0 -0 -0 0 0 0 0 0 0 0 0 0 0 0 0 0 0 0 0 0 0 0 0 0 0 0 0 0 0 0 0 0 0 0 0 0 0
0 0 0 0 0 0 0 0 0 0 0 0 0 0 0 0 0 0 0 0 0 0 0 0 0 0 0 0 0 0 0 0 0 0 0 0 0 0 0 0 0 0 0
0 0 0 0 0 0 0 0 0 0 0 0 0 0 0 0 0 0 0 0 0 0 0 0 0 0 0 0 0 0 0 0 0 0 0 0 0 0 0 0 0 0 0
-0 -0 0 0 0 0 0 0 0 0 0 0 0 0 0 0 0 0 0 0 0 0 0 0 0 0 0 0 0 0 0 0 0 0 0 0 0 0 0 0 0 0 0
-0 -0 -0 0 0 0 0 0 0 0 0 0 0 0 0 0 0 0 0 0 0 0 0 0 0 0 0 0 0 0 0 0 0 0 0 0 0 0 0 0 0 0 0
-0 -0 -0 0 0 0 0 0 0 0 0 0 0 0 0 0 0 0 0 0 0 0 0 0 0 0 0 0 0 0 0 0 0 0 0 0 0 0 0 0 0 0 0
-0 -0 0 0 0 0 0 0 0 0 0 0 0 0 0 0 0 0 0 0 0 0 0 0 0 0 0 0 0 0 0 0 0 0 0 0 0 0 0 0 0 0 0
0 0 0 0 0 0 0 0 0 0 0 0 0 0 0 0 0 0 0 0 0 0 0 0 0 0 0 0 0 0 0 0 0 0 0 0 0 0 0 0 0 0 0
0 0 0 0 0 0 0 0 0 0 0 0 0 0 0 0 0 0 0 0 0 0 0 0 0 0 0 0 0 0 0 0 0 0 0 0 0 0 0 0 0 0 0
0 0 0 0 0 0 0 0 0 0 0 0 0 0 0 0 0 0 0 0 0 0 0 0 0 0 0 0 0 0 0 0 0 0 0 0 0 0 0 0 0 0 0
0 0 0 0 0 0 0 0 0 0 0 0 0 0 0 0 0 0 0 0 0 0 0 0 0 0 0 0 0 0 0 0 0 0 0 0 0 0 0 0 0 0 0
0 0 0 0 0 0 0 0 0 0 0 0 0 0 0 0 0 0 0 0 0 0 0 0 0 0 0 0 0 0 0 0 0 0 0 0 0 0 0 0 0 0 0
0 0 0 0 0 0 0 0 0 0 0 0 0 0 0 0 0 0 0 0 0 0 0 0 0 0 0 0 0 0 0 0 0 0 0 0 0 0 0 0 0 0 0
0 0 0 0 0 0 0 0 0 0 0 0 0 0 0 0 0 0 0 0 0 0 0 0 0 0 0 0 0 0 0 0 0 0 0 0 0 0 0 0 0 0 0
0 0 0 0 0 0 0 0 0 0 0 0 0 0 0 0 0 0 0 0 0 0 0 0 0 0 0 0 0 0 0 0 0 0 0 0 0 0 0 0 0 0 0
0 0 0 0 0 0 0 0 0 0 0 0 0 0 0 0 0 0 0 0 0 0 0 0 0 0 0 0 0 0 0 0 0 0 0 0 0 0 0 0 0 0 0
0 0 0 0 0 0 0 0 0 0 0 0 0 0 0 0 0 0 0 0 0 0 0 0 0 0 0 0 0 0 0 0 0 0 0 0 0 0 0 0 0 0 0
0 0 0 0 0 0 0 0 0 0 0 0 0 0 0 0 0 0 0 0 0 0 0 0 0 0 0 0 0 0 0 0 0 0 0 0 0 0 0 0 0 0 0
0 0 0 0 0 0 0 0 0 0 0 0 0 0 0 0 0 0 0 0 0 0 0 0 0 0 0 0 0 0 0 0 0 0 0 0 0 0 0 0 0 0 0
0 0 0 0 0 0 0 0 0 0 0 0 0 0 0 0 0 0 0 0 0 0 0 0 0 0 0 0 0 0 0 0 0 0 0 0 0 0 0 0 0 0 0
Wind_Speed
3 3 3 4 4 4 4 6 6 6 6 6 6 6 6 6 7 7 7 7 8 7 7 8 8 7 6 5 5 5 5 5 7 5 3 3 4 4 4 4 4 5 5
3 3 4 4 4 4 5 6 6 6 6 5 5 6 6 6 6 7 8 7 8 8 8 8 8 6 7 5 5 6 5 5 6 7 5 3 4 4 4 4 3 3 3
3 3 4 4 4 5 6 6 6 6 5 5 5 6 6 6 6 6 7 7 7 7 7 8 7 7 7 6 6 5 5 5 5 5 5 3 3 3 3 2 2 2 2
3 3 4 4 5 5 6 6 6 5 5 5 5 5 5 5 5 5 5 5 5 6 7 7 7 7 8 7 6 6 5 5 4 4 4 3 2 2 2 2 2 1 2
3 4 5 5 5 5 5 6 5 5 5 5 5 4 4 4 4 4 4 4 5 5 5 5 6 8 10 8 6 5 5 5 4 4 4 3 3 2 2 1 2 2 2
4 5 5 5 5 5 5 5 5 5 5 4 4 4 4 4 6 7 5 3 4 5 5 5 5 6 7 8 8 8 8 7 6 5 4 4 4 3 2 2 2 1 1
4 4 4 5 5 5 5 5 5 5 4 5 4 4 4 5 7 7 7 4 3 4 4 3 3 3 4 3 4 6 7 9 9 6 5 5 4 4 3 3 3 2 2
4 4 5 5 6 6 5 5 5 4 4 4 4 4 4 6 8 8 7 4 3 3 3 3 3 3 3 3 2 3 3 4 5 5 4 4 4 4 4 4 3 1 1
5 5 5 5 5 6 5 5 5 4 4 4 4 4 4 6 8 7 6 2 2 3 3 3 3 3 4 4 2 2 2 2 2 2 3 3 4 4 4 3 3 2 1
6 6 6 5 5 5 5 5 4 3 4 4 4 4 4 5 6 6 5 2 2 2 2 2 4 4 4 4 3 3 3 2 1 1 1 0 1 1 1 3 4 3 1
6 5 5 5 5 5 4 4 4 3 3 3 4 4 4 4 5 6 5 2 2 2 2 2 2 3 3 3 2 2 3 2 2 2 1 1 1 1 2 2 1 2 2
5 5 5 5 5 4 3 4 3 3 3 3 3 4 3 4 5 5 5 4 3 2 2 2 2 3 4 4 2 1 1 1 1 2 2 1 1 2 2 3 4 3 2
5 5 5 5 4 4 3 3 3 2 2 3 3 3 4 3 3 4 4 4 4 2 1 2 2 2 3 2 2 1 1 1 2 2 2 1 2 2 3 3 4 5 6
5 5 5 4 4 4 3 2 2 2 2 3 2 3 3 3 2 2 1 1 1 1 1 1 2 2 2 2 2 2 1 2 2 2 2 2 3 3 3 2 2 3 4
5 5 4 4 4 3 3 3 3 3 3 3 3 2 3 3 4 4 3 2 1 1 0 0 1 1 1 1 1 1 1 2 3 3 3 3 3 3 3 2 2 3 3
5 4 3 3 3 3 3 4 5 5 7 7 6 4 3 4 5 4 4 3 3 1 1 1 1 1 0 0 1 1 1 2 2 3 3 3 3 3 3 3 3 3 4
4 4 3 3 3 3 3 3 4 6 6 6 6 6 5 4 4 4 3 3 2 2 1 1 1 1 0 0 1 1 1 2 2 3 3 3 3 3 3 3 3 3 3
4 4 4 3 3 3 3 3 3 3 4 4 5 6 6 5 4 4 4 4 2 2 1 1 1 0 1 0 1 1 2 2 3 3 3 3 3 4 4 3 3 3 3
4 3 3 3 2 2 2 2 2 2 3 3 4 4 6 5 5 5 4 2 2 2 1 1 1 1 1 1 1 2 2 2 3 3 3 3 3 3 3 3 3 4 3
3 5 4 3 2 2 2 2 2 2 2 2 3 3 3 3 3 3 3 2 2 2 2 1 1 1 1 1 2 2 2 3 3 3 3 3 3 3 4 3 3 3 2
3 3 5 3 2 2 2 2 2 2 2 2 2 3 4 2 2 2 2 2 2 2 2 1 1 1 1 2 2 2 3 3 3 3 3 3 3 3 3 3 3 3 3
2 2 2 2 2 2 2 2 2 2 2 2 2 3 4 3 2 2 2 2 2 2 2 1 1 1 1 1 2 2 3 3 3 3 4 3 3 4 4 3 3 3 3
2 2 2 2 2 3 3 2 1 2 2 2 2 2 2 2 2 2 2 2 2 2 2 2 2 2 2 2 2 2 2 2 2 3 4 4 4 4 4 4 4 4 3
2 2 2 2 2 1 1 2 2 2 2 2 2 2 2 2 2 3 2 2 2 3 2 2 2 3 3 3 2 2 2 3 3 3 4 5 5 4 4 4 4 4 4
2 2 2 2 2 2 2 2 2 2 2 2 2 2 2 2 2 2 2 2 3 3 3 3 2 3 4 4 3 3 5 6 5 4 4 5 6 5 5 5 4 4 4
2 2 2 2 2 2 2 2 2 2 2 2 2 2 2 2 2 2 2 2 2 3 3 3 4 4 4 3 4 6 7 7 7 7 5 5 5 5 5 4 5 5 5
Wind_Direction
275 275 280 281 280 279 274 271 272 273 269 264 262 260 257 256 244 237 241 240 237 240 240 235 237 232 232 232 230 232 237 235 256 269 261 265 255 256 267 262 257 248 251
275 276 276 280 287 289 283 281 280 280 275 270 269 269 263 261 249 242 244 242 238 240 243 237 236 231 229 233 230 231 234 229 238 259 265 258 252 247 258 265 277 265 253
286 281 283 290 293 293 291 290 287 285 285 284 274 270 269 267 262 251 242 240 239 238 239 235 232 227 231 232 230 228 231 235 233 242 256 255 254 243 258 274 276 275 274
300 293 287 288 288 290 291 293 290 286 283 283 279 272 269 268 269 264 246 241 242 246 244 238 230 227 230 230 229 227 225 230 230 230 244 252 252 242 234 244 290 300 303
307 302 294 292 292 293 293 294 293 292 291 287 287 288 282 275 270 265 258 247 245 253 253 245 236 235 237 235 231 225 221 220 223 226 235 241 244 231 235 210 253 299 311
302 294 295 303 308 302 296 300 303 301 297 296 293 289 287 286 290 290 283 266 257 254 259 258 254 248 242 242 243 243 233 222 221 225 232 227 237 235 233 213 221 258 285
305 303 310 314 314 306 303 311 307 301 298 300 295 288 284 286 293 292 287 286 273 257 256 256 268 257 247 228 243 255 245 241 235 225 224 228 223 221 214 219 221 224 241
312 313 315 314 309 307 312 308 300 294 296 292 290 288 286 287 293 294 294 288 279 272 261 247 244 259 243 231 227 240 242 243 238 229 214 221 222 216 209 206 203 168 78
315 313 309 303 301 303 305 301 299 297 293 282 276 277 279 284 290 293 299 284 281 282 275 266 251 252 254 249 232 235 248 266 255 217 216 213 222 228 204 158 157 158 204
310 310 307 303 299 300 302 304 304 299 292 285 281 277 273 279 290 296 302 277 282 291 297 286 276 273 275 262 223 207 223 235 191 111 105 126 202 176 173 178 174 177 170
307 307 306 306 303 298 298 299 302 303 306 304 298 294 286 283 291 287 291 270 250 269 276 281 283 301 305 292 272 226 215 214 170 151 132 95 76 77 64 62 86 165 175
308 308 307 306 304 306 301 303 304 304 308 308 307 309 300 295 294 286 285 282 283 255 260 268 283 310 326 328 305 233 199 187 151 133 123 116 104 77 65 61 61 58 63
310 309 310 312 314 312 307 306 309 304 297 299 306 308 307 301 293 298 301 293 299 294 268 283 311 325 335 342 348 4 104 135 128 125 126 116 97 96 89 76 66 66 57
308 309 311 314 318 324 321 313 309 308 303 301 303 299 303 309 296 286 290 309 315 332 2 22 14 17 8 5 9 49 82 115 122 119 113 104 93 89 82 76 80 74 68
308 307 310 310 310 319 324 320 307 299 292 296 292 285 292 301 296 295 294 286 279 233 306 75 62 36 40 41 42 51 71 91 98 100 109 106 99 89 77 71 75 71 81
308 307 307 311 316 320 327 334 338 326 326 320 314 308 303 301 314 320 322 318 321 339 63 110 103 82 64 76 79 65 76 88 96 100 109 113 110 105 94 78 76 86 88
302 304 309 316 320 322 324 327 330 339 344 346 342 335 333 334 337 341 353 12 17 34 72 101 121 122 79 72 112 105 86 94 101 105 109 112 111 107 100 94 88 88 84
312 312 317 316 319 320 322 324 325 328 334 342 348 349 350 352 4 21 29 36 35 33 63 102 115 123 103 80 118 109 101 100 101 105 108 110 111 110 107 104 99 99 92
315 316 319 321 321 321 323 327 330 329 329 332 342 349 358 10 25 30 33 45 41 23 19 49 81 90 99 98 102 109 108 106 104 102 106 108 111 110 107 106 103 97 88
312 315 320 323 326 330 331 336 338 336 334 336 338 338 347 13 28 21 23 27 28 19 14 23 43 64 76 88 89 98 102 101 104 99 104 105 105 108 111 110 109 106 95
309 316 323 328 332 332 338 342 340 339 334 338 339 343 350 15 23 16 14 18 18 14 18 24 33 42 58 71 83 91 98 103 105 107 110 111 113 110 108 108 106 104 104
312 318 328 332 334 335 336 341 343 337 339 344 348 353 357 20 25 18 14 14 15 18 23 29 34 48 62 72 86 98 100 101 108 116 116 114 113 112 111 109 106 104 105
323 326 331 333 333 327 336 346 351 350 351 346 352 2 7 15 19 15 12 16 20 21 23 29 40 53 57 55 61 91 111 114 117 129 128 123 118 114 114 113 113 111 105
332 329 331 332 335 340 350 356 359 356 354 356 7 7 5 14 19 16 16 23 26 25 25 30 49 61 62 59 62 67 84 98 103 115 123 126 122 117 113 110 107 109 109
348 345 344 346 346 355 6 7 8 8 5 7 10 7 16 26 26 20 24 30 33 33 31 37 47 56 62 65 70 86 98 97 98 100 103 110 113 114 114 112 110 106 102
354 355 355 356 3 12 14 12 10 11 14 13 15 17 22 28 27 25 27 31 32 38 42 42 45 56 60 66 83 95 96 98 99 98 100 105 107 109 109 107 108 104 101